AEROCUBE 5A

Last updated on Mon Apr 17 2023 00:03:43 GMT+0000 (Coordinated Universal Time)

1 39465U 13072D 23106.18282491 .15061980 13663-4 52842-2 0 9993 2 39465 120.4423 40.7255 0017712 224.3905 135.5798 16.24136248195584

Satellite not in orbit